Defiance, OH

8:28 PM EDT on October 18, 2017 (GMT -0400)
Defiance Memorial

Weather History for KDFI - December, 2010

Change the Weather History Date:

Sunday, December 5, 2010

  Actual Average Record
Temperature  
Mean Temperature 26 °F -  
Max Temperature 30 °F 37 °F 66 °F (2001)
Min Temperature 21 °F 23 °F -1 °F (1976)
Degree Days  
Heating Degree Days 40    
Moisture  
Dew Point 18 °F    
Average Humidity 70    
Maximum Humidity 80    
Minimum Humidity 59    
Precipitation  
Precipitation 0.00 in - - ()
Sea Level Pressure  
Sea Level Pressure 30.14 in    
Wind  
Wind Speed 10 mph (NW)    
Max Wind Speed 20 mph    
Max Gust Speed 24 mph    
Visibility 9 miles    
Events Snow    
Averages and records for this station are not official NWS values.
T = Trace of Precipitation, MM = Missing Value Source: NWS Daily Summary

Daily Weather History Graph

Daily Weather History Graph

Search for Another Location

Airport or City:

Trip Planner

Search our weather history database for the weather conditions in past years. The results will help you decide how hot, cold, wet, or windy it might be!

Date:

Astronomy

Dec. 05, 2010 Rise Set
Actual Time 7:48 AM EST 5:08 PM EST
Civil Twilight 7:17 AM EST 5:39 PM EST
Nautical Twilight 6:42 AM EST 6:13 PM EST
Astronomical Twilight 6:09 AM EST 6:47 PM EST
Moon 7:49 AM EST (12/5) 5:03 PM EST (12/5)
Length of Visible Light 10h 22m
Length of Day
9h 20m
Waning Crescent, 0% of the Moon is Illuminated
Dec 5
Waning Crescent
Dec 5
New
Dec 13
First Quarter
Dec 21
Full
Dec 27
Last Quarter

Hourly Weather History & Observations

Time (EST) Temp. Windchill Dew Point Humidity Pressure Visibility Wind Dir Wind Speed Gust Speed Precip Events Conditions
12:44 AM 28.4 °F 18.0 °F 15.8 °F 59% 30.10 in 10.0 mi NNW 12.7 mph - N/A   Overcast
12:53 AM 27.0 °F 15.2 °F 15.1 °F 61% 30.13 in 10.0 mi NW 15.0 mph 23.0 mph N/A   Overcast
1:53 AM 25.0 °F 10.9 °F 14.0 °F 63% 30.14 in 10.0 mi NNW 19.6 mph 24.2 mph N/A   Overcast
2:00 AM 24.8 °F 12.4 °F 12.2 °F 59% 30.11 in 10.0 mi NNW 15.0 mph 24.2 mph N/A   Overcast
2:53 AM 26.1 °F 14.0 °F 14.0 °F 60% 30.15 in 10.0 mi NNW 15.0 mph 19.6 mph N/A   Overcast
3:53 AM 26.1 °F 16.8 °F 15.1 °F 63% 30.14 in 10.0 mi NNW 9.2 mph - N/A   Overcast
4:53 AM 26.1 °F 19.4 °F 16.0 °F 66% 30.15 in 10.0 mi WNW 5.8 mph - N/A   Overcast
5:53 AM 24.1 °F 19.7 °F 16.0 °F 71% 30.16 in 10.0 mi West 3.5 mph - N/A   Partly Cloudy
6:53 AM 23.0 °F - 16.0 °F 74% 30.16 in 10.0 mi Calm Calm - N/A   Partly Cloudy
7:53 AM 21.0 °F - 15.1 °F 78% 30.17 in 10.0 mi Calm Calm - N/A   Partly Cloudy
8:53 AM 25.0 °F 20.7 °F 17.1 °F 72% 30.17 in 10.0 mi WNW 3.5 mph - N/A   Overcast
9:53 AM 28.0 °F 22.8 °F 18.0 °F 66% 30.17 in 10.0 mi Variable 4.6 mph - N/A   Overcast
10:53 AM 30.0 °F 21.7 °F 21.0 °F 69% 30.17 in 10.0 mi WNW 9.2 mph 16.1 mph N/A   Overcast
7:53 PM 28.9 °F 23.9 °F 21.9 °F 75% 30.16 in 10.0 mi Variable 4.6 mph - N/A   Overcast
8:07 PM 28.4 °F 22.2 °F 21.2 °F 74% 30.12 in 3.0 mi Variable 5.8 mph - 0.00 in Snow Light Snow
8:11 PM 28.4 °F 23.3 °F 23.0 °F 80% 30.12 in 2.0 mi Variable 4.6 mph - 0.00 in Snow Light Snow
8:16 PM 28.4 °F 22.2 °F 23.0 °F 80% 30.12 in 3.0 mi WNW 5.8 mph - 0.00 in Snow Light Snow
8:33 PM 28.4 °F 21.2 °F 21.2 °F 74% 30.12 in 9.0 mi Variable 6.9 mph 19.6 mph 0.00 in   Overcast
8:53 PM 27.0 °F 17.3 °F 19.9 °F 75% 30.15 in 9.0 mi WNW 10.4 mph 17.3 mph 0.00 in   Overcast
10:53 PM 28.0 °F 20.8 °F 19.0 °F 69% 30.13 in 10.0 mi WNW 6.9 mph - N/A   Overcast
11:53 PM 27.0 °F 20.5 °F 21.0 °F 78% 30.13 in 7.0 mi WNW 5.8 mph - 0.00 in Snow Light Snow